When you browse on this site, cookies collect data to enhance your experience and personalize the content and advertising you see.
Visit our Privacy Policy to learn more. By continuing to use the site, you agree to this use of cookies and data.
  • Em Portugal
  • Lista de países
  • Para 7 dias
  • Temperatura da água
  • Mapas de satélite
  • Mapa do tempo
  • Widgets de tempo
  • user-avatar
    Iniciar Sessão

    Previsão horária em Pogrebische

    Hoje, 21 Abril, Domingo

    Tempo Temperatura Precipitação Vento Pressão Humidade
    00:00 +8°C° 0 mm 2 m/s 747 mmHg 65%
    01:00 +7°C° 0 mm 2 m/s 747 mmHg 68%
    02:00 +7°C° 0 mm 2 m/s 746 mmHg 72%
    03:00 +6°C° 0 mm 2 m/s 746 mmHg 75%
    04:00 +6°C° 0 mm 2 m/s 746 mmHg 79%
    05:00 +6°C° 0 mm 2 m/s 746 mmHg 82%
    06:00 +7°C° 0 mm 2 m/s 746 mmHg 78%
    07:00 +8°C° 0 mm 3 m/s 746 mmHg 74%
    08:00 +9°C° 0 mm 3 m/s 746 mmHg 69%
    09:00 +11°C° 0 mm 4 m/s 746 mmHg 64%
    10:00 +12°C° 0 mm 4 m/s 746 mmHg 58%
    11:00 +13°C° 0 mm 5 m/s 746 mmHg 52%
    12:00 +13°C° 0.1 mm 5 m/s 746 mmHg 52%
    13:00 +13°C° 0.1 mm 5 m/s 746 mmHg 52%
    14:00 +13°C° 0.1 mm 5 m/s 745 mmHg 51%
    15:00 +13°C° 0.1 mm 5 m/s 745 mmHg 52%
    16:00 +13°C° 0.1 mm 5 m/s 745 mmHg 53%
    17:00 +12°C° 0.1 mm 5 m/s 745 mmHg 54%
    18:00 +11°C° 0 mm 4 m/s 745 mmHg 59%
    19:00 +10°C° 0 mm 4 m/s 745 mmHg 64%
    20:00 +9°C° 0 mm 3 m/s 745 mmHg 69%
    21:00 +8°C° 0 mm 3 m/s 746 mmHg 69%
    22:00 +8°C° 0 mm 3 m/s 746 mmHg 70%
    23:00 +7°C° 0 mm 3 m/s 746 mmHg 70%

    Amanhã, 22 Abril, Segunda-feira

    Tempo Temperatura Precipitação Vento Pressão Humidade
    00:00 +7°C° 0 mm 3 m/s 746 mmHg 70%
    01:00 +5°C° 0 mm 3 m/s 746 mmHg 70%
    02:00 +5°C° 0 mm 3 m/s 747 mmHg 70%
    03:00 +5°C° 0 mm 3 m/s 747 mmHg 70%
    04:00 +5°C° 0 mm 3 m/s 747 mmHg 70%
    05:00 +5°C° 0 mm 3 m/s 747 mmHg 69%
    06:00 +7°C° 0 mm 3 m/s 748 mmHg 64%
    07:00 +8°C° 0 mm 4 m/s 748 mmHg 59%
    08:00 +10°C° 0 mm 4 m/s 748 mmHg 54%
    09:00 +10°C° 0 mm 5 m/s 749 mmHg 49%
    10:00 +11°C° 0 mm 6 m/s 749 mmHg 45%
    11:00 +13°C° 0 mm 6 m/s 749 mmHg 40%
    12:00 +13°C° 0 mm 6 m/s 749 mmHg 41%
    13:00 +13°C° 0 mm 5 m/s 749 mmHg 43%
    14:00 +13°C° 0 mm 5 m/s 749 mmHg 44%
    15:00 +13°C° 0 mm 5 m/s 749 mmHg 45%
    16:00 +13°C° 0 mm 5 m/s 749 mmHg 46%
    17:00 +13°C° 0 mm 4 m/s 749 mmHg 46%
    18:00 +11°C° 0 mm 4 m/s 749 mmHg 52%
    19:00 +10°C° 0 mm 3 m/s 750 mmHg 57%
    20:00 +8°C° 0 mm 3 m/s 750 mmHg 62%
    21:00 +8°C° 0 mm 3 m/s 750 mmHg 63%
    22:00 +7°C° 0 mm 3 m/s 750 mmHg 64%
    23:00 +7°C° 0 mm 3 m/s 750 mmHg 66%

    Depois de amanhã, 23 Abril, Terça-feira

    Tempo Temperatura Precipitação Vento Pressão Humidade
    00:00 +7°C° 0 mm 3 m/s 750 mmHg 66%
    01:00 +5°C° 0 mm 3 m/s 750 mmHg 67%
    02:00 +5°C° 0 mm 3 m/s 750 mmHg 68%
    03:00 +5°C° 0 mm 3 m/s 751 mmHg 68%
    04:00 +4°C° 0 mm 3 m/s 751 mmHg 69%
    05:00 +4°C° 0 mm 3 m/s 751 mmHg 69%
    06:00 +7°C° 0 mm 3 m/s 751 mmHg 65%
    07:00 +8°C° 0 mm 4 m/s 751 mmHg 61%
    08:00 +11°C° 0 mm 4 m/s 752 mmHg 57%
    09:00 +12°C° 0 mm 5 m/s 752 mmHg 52%
    10:00 +13°C° 0 mm 5 m/s 752 mmHg 47%
    11:00 +14°C° 0 mm 6 m/s 752 mmHg 43%
    12:00 +15°C° 0 mm 6 m/s 751 mmHg 42%
    13:00 +15°C° 0 mm 6 m/s 751 mmHg 41%
    14:00 +16°C° 0 mm 6 m/s 751 mmHg 41%
    15:00 +15°C° 0 mm 5 m/s 751 mmHg 43%
    16:00 +15°C° 0 mm 5 m/s 751 mmHg 45%
    17:00 +15°C° 0 mm 5 m/s 750 mmHg 47%
    18:00 +13°C° 0 mm 4 m/s 750 mmHg 53%
    19:00 +11°C° 0 mm 4 m/s 750 mmHg 58%
    20:00 +10°C° 0 mm 4 m/s 750 mmHg 63%
    21:00 +10°C° 0 mm 4 m/s 751 mmHg 64%
    22:00 +8°C° 0 mm 4 m/s 751 mmHg 64%
    23:00 +8°C° 0 mm 4 m/s 751 mmHg 65%

    24 Abril, Quarta-feira

    Tempo Temperatura Precipitação Vento Pressão Humidade
    00:00 +7°C° 0 mm 4 m/s 751 mmHg 67%
    01:00 +7°C° 0 mm 3 m/s 751 mmHg 70%
    02:00 +7°C° 0 mm 3 m/s 751 mmHg 72%
    03:00 +5°C° 0 mm 3 m/s 751 mmHg 73%
    04:00 +5°C° 0 mm 3 m/s 751 mmHg 73%
    05:00 +5°C° 0 mm 3 m/s 751 mmHg 73%
    06:00 +7°C° 0 mm 4 m/s 751 mmHg 67%
    07:00 +10°C° 0 mm 4 m/s 751 mmHg 61%
    08:00 +12°C° 0 mm 5 m/s 752 mmHg 54%
    09:00 +13°C° 0 mm 6 m/s 752 mmHg 51%
    10:00 +14°C° 0 mm 6 m/s 752 mmHg 48%
    11:00 +15°C° 0 mm 6 m/s 752 mmHg 45%
    12:00 +16°C° 0 mm 6 m/s 751 mmHg 44%
    13:00 +16°C° 0 mm 6 m/s 751 mmHg 43%
    14:00 +17°C° 0 mm 6 m/s 751 mmHg 42%
    15:00 +17°C° 0 mm 6 m/s 751 mmHg 43%
    16:00 +16°C° 0 mm 5 m/s 750 mmHg 44%
    17:00 +16°C° 0 mm 5 m/s 750 mmHg 45%
    18:00 +15°C° 0 mm 5 m/s 750 mmHg 50%
    19:00 +13°C° 0 mm 4 m/s 750 mmHg 55%
    20:00 +11°C° 0 mm 3 m/s 750 mmHg 59%
    21:00 +11°C° 0 mm 3 m/s 750 mmHg 61%
    22:00 +10°C° 0 mm 3 m/s 750 mmHg 63%
    23:00 +9°C° 0 mm 3 m/s 750 mmHg 65%

    25 Abril, Quinta-feira

    Tempo Temperatura Precipitação Vento Pressão Humidade
    00:00 +9°C° 0 mm 3 m/s 750 mmHg 67%
    01:00 +8°C° 0 mm 3 m/s 750 mmHg 68%
    02:00 +8°C° 0 mm 3 m/s 750 mmHg 70%
    03:00 +8°C° 0 mm 3 m/s 750 mmHg 71%
    04:00 +6°C° 0 mm 4 m/s 750 mmHg 72%
    05:00 +6°C° 0 mm 4 m/s 750 mmHg 73%
    06:00 +8°C° 0 mm 4 m/s 750 mmHg 68%
    07:00 +9°C° 0 mm 5 m/s 750 mmHg 63%
    08:00 +11°C° 0 mm 6 m/s 751 mmHg 58%
    09:00 +13°C° 0 mm 6 m/s 750 mmHg 55%
    10:00 +15°C° 0 mm 7 m/s 750 mmHg 51%
    11:00 +16°C° 0 mm 7 m/s 750 mmHg 48%
    12:00 +17°C° 0 mm 7 m/s 750 mmHg 47%
    13:00 +18°C° 0 mm 7 m/s 749 mmHg 46%
    14:00 +18°C° 0 mm 7 m/s 749 mmHg 45%
    15:00 +19°C° 0 mm 6 m/s 749 mmHg 47%
    16:00 +19°C° 0 mm 6 m/s 748 mmHg 49%
    17:00 +19°C° 0 mm 6 m/s 748 mmHg 51%
    18:00 +16°C° 0 mm 5 m/s 748 mmHg 56%
    19:00 +15°C° 0 mm 5 m/s 747 mmHg 60%
    20:00 +13°C° 0 mm 4 m/s 747 mmHg 65%
    21:00 +13°C° 0 mm 5 m/s 747 mmHg 64%
    22:00 +12°C° 0 mm 5 m/s 747 mmHg 62%
    23:00 +12°C° 0 mm 5 m/s 747 mmHg 61%

    26 Abril, Sexta-feira

    Tempo Temperatura Precipitação Vento Pressão Humidade
    00:00 +10°C° 0 mm 5 m/s 747 mmHg 61%
    01:00 +10°C° 0 mm 5 m/s 746 mmHg 61%
    02:00 +10°C° 0 mm 5 m/s 746 mmHg 61%
    03:00 +10°C° 0 mm 5 m/s 746 mmHg 60%
    04:00 +9°C° 0 mm 5 m/s 746 mmHg 60%
    05:00 +9°C° 0 mm 5 m/s 746 mmHg 60%
    06:00 +10°C° 0 mm 5 m/s 745 mmHg 57%
    07:00 +11°C° 0 mm 6 m/s 745 mmHg 55%
    08:00 +12°C° 0 mm 7 m/s 745 mmHg 53%
    09:00 +14°C° 0 mm 7 m/s 745 mmHg 50%
    10:00 +16°C° 0 mm 7 m/s 745 mmHg 48%
    11:00 +18°C° 0 mm 8 m/s 745 mmHg 45%
    12:00 +20°C° 0 mm 8 m/s 744 mmHg 45%
    13:00 +20°C° 0 mm 8 m/s 744 mmHg 44%
    14:00 +21°C° 0 mm 8 m/s 743 mmHg 44%
    15:00 +21°C° 0 mm 7 m/s 743 mmHg 46%
    16:00 +21°C° 0 mm 7 m/s 742 mmHg 48%
    17:00 +20°C° 0 mm 6 m/s 742 mmHg 49%
    18:00 +19°C° 0 mm 6 m/s 742 mmHg 53%
    19:00 +16°C° 0 mm 5 m/s 742 mmHg 57%
    20:00 +15°C° 0 mm 5 m/s 742 mmHg 61%
    21:00 +14°C° 0 mm 5 m/s 741 mmHg 61%
    22:00 +14°C° 0 mm 6 m/s 741 mmHg 62%
    23:00 +13°C° 0 mm 6 m/s 741 mmHg 62%
    Mostrar mais